Location: Bartshausen
(51.8454°N, 9.8167°E)
Time: 11:21:43
(UTC+00:00)

Iridium 4 Rocket - Pass Details

Date: 16 February 2026
Orbit: 579 x 887 km, 86.9° (Epoch: 8 March)

Event Time Altitude Azimuth Distance (km) Brightness Sun altitude
Rises 18:05:52 0° 5° (N) 3,117 6.6 -14.3°
Reaches altitude 10° 18:08:45 10° 21° (NNE) 2,133 5.6 -14.7°
Enters shadow 18:11:40 21° 58° (ENE) 1,484 4.5 -15.2°
